Satellite-Ground Cal/Val Site Overpasses Predictions

Prediction of Satellite NPP Overpassing Cal/Val Site: Antarctic Dome C

Ground Cal/Val Site Location: Latitude: -75.10, Longitude: 123.35; Satellite-Ground Site NADIR distance within 100 km.

Table of predicted overpasses for the next 14.0 days since TLE Epoch: 12/28/2024
Interval Starting Time Ending Time Minimum Distance Time Minimum Distance (km)
1 12/29/2024 14:49:17 12/29/2024 14:49:46 12/29/2024 14:49:31 10.27
2 12/31/2024 07:32:08 12/31/2024 07:32:38 12/31/2024 07:32:23 2.12
3 01/03/2025 14:55:40 01/03/2025 14:56:09 01/03/2025 14:55:54 26.98
4 01/04/2025 14:36:57 01/04/2025 14:37:14 01/04/2025 14:37:06 80.32
5 01/05/2025 07:38:32 01/05/2025 07:38:59 01/05/2025 07:38:46 38.38
6 01/06/2025 07:19:47 01/06/2025 07:20:07 01/06/2025 07:19:57 71.36
7 01/08/2025 15:02:05 01/08/2025 15:02:27 01/08/2025 15:02:16 64.32
8 01/09/2025 14:43:15 01/09/2025 14:43:41 01/09/2025 14:43:28 45.05
